Onweer radar Meer informatie blitzortung!


Regen radar Meer informatie rain snow radar


Bezoek onze andere website:

Template documentation
and downloads

And another site



15 daagse weersverwachting Naas, Maynooth (IE)

  • Overzicht
  • Per uur
  • 15 dagen
  • Extra
  • Vergelijk
  • Kaarten
  • Dagkaart
  • Meer »
  • Info
  • Statistieken
  • Directe link
    Temp 6h Neerslag Wind  
 04:59     21:56    Daglengte: 16:57 Vandaag
19:00
14°
0.6 mm
6
 04:59     21:57    Daglengte: 16:58 Morgen
01:00
11°
0.8 mm
5
07:00
11°
 
6
13:00
16°
 
7
19:00
16°
5.6 mm
5
 04:59     21:57    Daglengte: 16:58 Dinsdag 18 Jun
01:00
11°
 
3
07:00
11°
 
3
13:00
17°
 
4
19:00
18°
 
2
 04:59     21:58    Daglengte: 16:59 Woensdag 19 Jun
01:00
11°
 
2
07:00
10°
 
2
13:00
17°
 
4
Locatie info
Region: Kildare
Latitude: 53.3817°N
Longitude: -6.5904°E
56 masl
Postcode: -1
Temp/Neerslag /Baro Onweer/Dauwpunt
    Temp Baro 1h Neerslag Dauwpunt Wind UV Bewolking  
 04:59     21:56    Daglengte: 16:57 Vandaag
19:00
14°
1006.2 hPa 0.6 mm
82%
11.9°
6
Windvlaag: 6.1 m/s
38%
20:00
14°
1006.2 hPa 0.8 mm
82%
11.6°
8
Windvlaag: 5.8 m/s
37%
21:00
13°
1006.9 hPa
82%
11.0°
6
Windvlaag: 4 m/s
33%
22:00
12°
1007.6 hPa
80%
10.1°
5
Windvlaag: 2.6 m/s
32%
23:00
12°
1008.3 hPa
75%
9.7°
5
Windvlaag: 2.8 m/s
32%
 04:59     21:57    Daglengte: 16:58 Morgen
00:00
11°
1008.7 hPa
17%
9.4°
4
Windvlaag: 3.3 m/s
51%
01:00
11°
1008.9 hPa
53%
9.1°
5
Windvlaag: 4.1 m/s
68%
02:00
11°
1009.2 hPa
16%
8.9°
5
Windvlaag: 4.6 m/s
58%
03:00
10°
1009.3 hPa
14%
8.7°
5
Windvlaag: 4.9 m/s
22%
04:00
10°
1009.4 hPa
14%
8.5°
5
Windvlaag: 5 m/s
18%
05:00
10°
1009.3 hPa
14%
8.3°
5
Windvlaag: 5 m/s
14%
06:00
10°
1009.4 hPa
14%
8.5°
5
Windvlaag: 5 m/s
12%
07:00
11°
1009.6 hPa
14%
8.7°
6
Windvlaag: 5 m/s
12%
08:00
12°
1009.8 hPa
14%
9.0°
6
Windvlaag: 5.3 m/s
14%
09:00
13°
1009.9 hPa
14%
8.9°
7
Windvlaag: 5.3 m/s
21%
10:00
14°
1010.2 hPa
22%
8.6°
7
Windvlaag: 5 m/s
23%
11:00
15°
1010.2 hPa
66%
8.3°
7
Windvlaag: 5.2 m/s
31%
12:00
16°
1010.3 hPa
37%
8.2°
7
Windvlaag: 4.9 m/s
50%
13:00
16°
1010.3 hPa
67%
8.1°
7
Windvlaag: 4.6 m/s
34%
14:00
17°
1010.4 hPa
23%
8.0°
7
Windvlaag: 4.6 m/s
38%
15:00
17°
1010.3 hPa
73%
7.9°
7
Windvlaag: 4.7 m/s
45%
16:00
17°
1010.5 hPa 2.8 mm
69%
8.0°
7
Windvlaag: 4.1 m/s
56%
17:00
17°
1010.5 hPa 2.8 mm
25%
8.1°
6
Windvlaag: 4 m/s
50%
18:00
17°
1010.7 hPa
53%
8.8°
5
Windvlaag: 3.8 m/s
40%
19:00
16°
1010.9 hPa
20%
9.4°
5
Windvlaag: 3.6 m/s
25%
20:00
16°
1011.1 hPa
15%
9.6°
4
Windvlaag: 2.2 m/s
15%
21:00
14°
1011.5 hPa
16%
9.6°
3
Windvlaag: 1.6 m/s
28%
22:00
13°
1012.0 hPa
14%
9.2°
3
Windvlaag: 1.7 m/s
30%
23:00
12°
1012.4 hPa
14%
9.0°
3
Windvlaag: 1.9 m/s
24%
 04:59     21:57    Daglengte: 16:58 Dinsdag 18 Jun
00:00
12°
1012.4 hPa
14%
8.8°
3
Windvlaag: 2.1 m/s
12%
01:00
11°
1012.5 hPa
15%
8.6°
3
Windvlaag: 2.5 m/s
17%
02:00
10°
1012.6 hPa
15%
8.5°
3
Windvlaag: 2.6 m/s
15%
03:00
10°
1012.5 hPa
14%
8.3°
3
Windvlaag: 2.5 m/s
19%
04:00
10°
Voelt als: 8.0°
1012.4 hPa
14%
8.0°
3
Windvlaag: 2.4 m/s
18%
05:00
Voelt als: 7.8°
1012.3 hPa
14%
7.9°
3
Windvlaag: 2.6 m/s
22%
06:00
10°
Voelt als: 8.2°
1012.5 hPa
14%
8.2°
3
Windvlaag: 2.6 m/s
64%
07:00
11°
1012.9 hPa
14%
8.7°
3
Windvlaag: 2.4 m/s
79%
08:00
12°
1012.9 hPa
14%
8.6°
4
Windvlaag: 2.4 m/s
62%
09:00
13°
1012.9 hPa
14%
8.3°
4
Windvlaag: 2.4 m/s
54%
10:00
14°
1012.7 hPa
14%
8.0°
4
Windvlaag: 2.6 m/s
52%
11:00
15°
1012.6 hPa
14%
7.7°
4
Windvlaag: 2.6 m/s
40%
12:00
16°
1012.4 hPa
14%
7.2°
4
Windvlaag: 2.7 m/s
25%
13:00
17°
1012.3 hPa
14%
7.3°
4
Windvlaag: 2.6 m/s
20%
14:00
17°
1011.9 hPa
14%
7.3°
3
Windvlaag: 2.3 m/s
18%
15:00
18°
1011.4 hPa
14%
7.1°
3
Windvlaag: 2 m/s
28%
16:00
18°
1010.8 hPa
21%
5.8°
3
Windvlaag: 1.9 m/s
43%
17:00
18°
1010.5 hPa
21%
5.6°
3
Windvlaag: 1.5 m/s
69%
18:00
18°
1010.2 hPa
21%
5.6°
3
Windvlaag: 0.9 m/s
88%
19:00
18°
1010.1 hPa
21%
6.8°
2
Windvlaag: 0.3 m/s
89%
20:00
17°
1010.1 hPa
21%
8.5°
2
Windvlaag: 0.3 m/s
87%
21:00
15°
1010.3 hPa
21%
9.5°
2
Windvlaag: 0.3 m/s
82%
22:00
14°
1010.5 hPa
30%
9.6°
2
Windvlaag: -0.1 m/s
92%
23:00
13°
1010.5 hPa
85%
9.7°
2
Windvlaag: -0 m/s
95%
 04:59     21:58    Daglengte: 16:59 Woensdag 19 Jun
00:00
12°
1010.4 hPa
75%
9.8°
2
Windvlaag: 0.2 m/s
96%
01:00
11°
1010.2 hPa
22%
9.7°
2
Windvlaag: 0.6 m/s
94%
02:00
11°
1009.9 hPa
21%
9.6°
2
Windvlaag: 0.5 m/s
87%
03:00
10°
1009.5 hPa
21%
9.5°
2
Windvlaag: 0.3 m/s
80%
04:00
10°
1009.2 hPa
21%
9.4°
2
Windvlaag: 0.2 m/s
65%
05:00
10°
Voelt als: 8.8°
1009.1 hPa
21%
9.2°
2
Windvlaag: 0 m/s
68%
06:00
10°
Voelt als: 8.9°
1009.1 hPa
21%
9.3°
2
Windvlaag: 0.3 m/s
61%
07:00
10°
1009.1 hPa
21%
9.3°
2
Windvlaag: 0.7 m/s
64%
08:00
11°
1009.0 hPa
21%
9.3°
3
Windvlaag: 1.9 m/s
59%
09:00
13°
1008.8 hPa
23%
9.4°
3
Windvlaag: 1.9 m/s
59%
10:00
14°
1008.6 hPa
84%
9.2°
3
Windvlaag: 2 m/s
45%
11:00
15°
1008.3 hPa
88%
8.8°
4
Windvlaag: 1.9 m/s
35%
12:00
16°
1008.1 hPa
25%
8.3°
4
Windvlaag: 1.1 m/s
58%
13:00
17°
1008.0 hPa
22%
7.5°
4
Windvlaag: 1.1 m/s
69%
14:00
17°
1007.4 hPa
24%
8.0°
4
Windvlaag: 5.5 m/s
65%
15:00
17°
1007.3 hPa
96%
8.4°
4
Windvlaag: 6.2 m/s
44%
16:00
17°
1007.1 hPa 4.2 mm
100%
8.7°
5
Windvlaag: 6.6 m/s
64%
17:00
16°
1007.1 hPa
100%
8.7°
5
Windvlaag: 6.5 m/s
50%
18:00
16°
1006.9 hPa 4.2 mm
100%
8.7°
5
Windvlaag: 7.4 m/s
50%
Temp/Neerslag /Baro Onweer/Dauwpunt
    Temp Baro Neerslag Dauwpunt Wind Bewolking  
 04:59     21:56    Daglengte: 16:57 Vandaag
19:00
14°
1006.2 hPa 0.6 mm 11.9°
6
38%
22:00
12°
1007.6 hPa 0.8 mm 10.1°
5
32%
 04:59     21:57    Daglengte: 16:58 Morgen
01:00
11°
1008.9 hPa   9.1°
5
68%
04:00
10°
1009.4 hPa   8.5°
5
18%
07:00
11°
1009.6 hPa   8.7°
6
12%
10:00
14°
1010.2 hPa   8.6°
7
23%
13:00
16°
1010.3 hPa   8.1°
7
34%
16:00
17°
1010.5 hPa 2.8 mm 8.0°
7
56%
19:00
16°
1010.9 hPa 2.8 mm 9.4°
5
25%
22:00
13°
1012.0 hPa   9.2°
3
30%
 04:59     21:57    Daglengte: 16:58 Dinsdag 18 Jun
01:00
11°
1012.5 hPa   8.6°
3
17%
04:00
10°
Voelt als: 8.0°
1012.4 hPa   8.0°
3
18%
07:00
11°
1012.9 hPa   8.7°
3
79%
10:00
14°
1012.7 hPa   8.0°
4
52%
13:00
17°
1012.3 hPa   7.3°
4
20%
16:00
18°
1010.8 hPa   5.8°
3
43%
19:00
18°
1010.1 hPa   6.8°
2
89%
22:00
14°
1010.5 hPa   9.6°
2
92%
 04:59     21:58    Daglengte: 16:59 Woensdag 19 Jun
01:00
11°
1010.2 hPa   9.7°
2
94%
04:00
10°
1009.2 hPa   9.4°
2
65%
07:00
10°
1009.1 hPa   9.3°
2
64%
10:00
14°
1008.6 hPa   9.2°
3
45%
13:00
17°
1008.0 hPa   7.5°
4
69%
16:00
17°
1007.1 hPa 4.2 mm 8.7°
5
64%
19:00
15°
1006.9 hPa 12.6 mm 8.8°
5
55%
22:00
12°
1008.1 hPa 12.5 mm 8.4°
4
56%
 04:59     21:58    Daglengte: 16:59 Donderdag 20 Jun
01:00
10°
1008.3 hPa 12.6 mm 8.0°
4
54%
04:00
10°
1008.4 hPa 12.6 mm 7.8°
4
65%
07:00
10°
1008.5 hPa 12.6 mm 7.9°
5
75%
10:00
12°
1009.3 hPa 12.7 mm 7.8°
5
54%
13:00
15°
1010.1 hPa 13.7 mm 7.4°
5
33%
16:00
14°
1010.9 hPa 16.4 mm 7.0°
4
38%
19:00
13°
1011.9 hPa 18.0 mm 6.4°
4
44%
22:00
11°
1013.7 hPa 18.5 mm 6.5°
3
24%
 05:00     21:58    Daglengte: 16:58 Vrijdag 21 Jun
01:00
Voelt als: 6.7°
1015.4 hPa 18.5 mm 6.1°
2
4%
04:00
Voelt als: 6.5°
1016.5 hPa 18.5 mm 6.0°
3
17%
07:00
Voelt als: 6.6°
1017.6 hPa 18.5 mm 5.9°
3
30%
10:00
12°
1018.5 hPa 18.7 mm 6.2°
3
53%
13:00
15°
1019.4 hPa 19.6 mm 5.3°
3
76%
16:00
15°
1020.1 hPa 20.6 mm 5.9°
3
79%
19:00
15°
1020.7 hPa 20.9 mm 6.4°
2
82%
22:00
12°
1021.8 hPa 21.1 mm 7.1°
2
68%
 05:00     21:58    Daglengte: 16:58 Zaterdag 22 Jun
01:00
10°
1022.7 hPa 21.2 mm 7.2°
1
53%
04:00
10°
1022.8 hPa 21.3 mm 7.5°
1
62%
07:00
10°
1022.9 hPa 21.3 mm 7.9°
2
70%
10:00
13°
1023.0 hPa 21.4 mm 8.0°
2
81%
13:00
16°
1023.0 hPa 21.6 mm 7.5°
2
92%
16:00
16°
1022.7 hPa 22.4 mm 7.3°
3
77%
19:00
16°
1022.5 hPa 23.2 mm 7.1°
3
62%
22:00
13°
1023.0 hPa 23.3 mm 7.5°
2
58%
 05:00     21:58    Daglengte: 16:58 Zondag 23 Jun
01:00
10°
Voelt als: 8.5°
1023.4 hPa 23.3 mm 7.3°
2
53%
04:00
11°
1023.1 hPa 23.3 mm 8.7°
2
66%
07:00
12°
1022.8 hPa 23.3 mm 10.2°
2
80%
10:00
15°
1022.7 hPa 23.3 mm 10.9°
3
83%
13:00
17°
1022.6 hPa 23.6 mm 10.9°
4
86%
16:00
17°
1022.5 hPa   10.8°
4
88%
19:00
16°
1022.4 hPa 47.8 mm 10.5°
3
90%
 05:01     21:58    Daglengte: 16:57 Maandag 24 Jun
01:00
11°
1023.5 hPa 51.8 mm 9.6°
3
39%
07:00
13°
1023.7 hPa 55.6 mm 10.3°
3
12%
13:00
17°
1024.6 hPa 57.8 mm 8.6°
5
9%
19:00
16°
1025.3 hPa 62.7 mm 7.6°
4
2%
 05:01     21:58    Daglengte: 16:57 Dinsdag 25 Jun
01:00
11°
1027.3 hPa 65.4 mm 8.4°
2
0%
07:00
12°
1028.1 hPa 66.5 mm 9.9°
2
4%
13:00
20°
1028.6 hPa 69.1 mm 9.6°
3
72%
19:00
19°
1028.0 hPa 71.8 mm 9.8°
2
80%
 05:01     21:58    Daglengte: 16:57 Woensdag 26 Jun
01:00
12°
1029.3 hPa 72.2 mm 9.1°
2
27%
07:00
10°
Voelt als: 7.0°
1020.0 hPa 72.2 mm 7.6°
5
0%
13:00
15°
1025.3 hPa 0.1 mm 9.7°
3
38%
19:00
16°
1024.1 hPa 0.3 mm 11.2°
2
59%
 05:02     21:58    Daglengte: 16:56 Donderdag 27 Jun
01:00
10°
1023.7 hPa 0.3 mm 8.9°
1
55%
07:00
10°
1021.7 hPa 0.5 mm 9.1°
2
55%
13:00
15°
1020.3 hPa 1.2 mm 10.9°
2
65%
19:00
15°
1018.2 hPa 1.2 mm 11.9°
2
66%
 05:03     21:58    Daglengte: 16:55 Vrijdag 28 Jun
01:00
11°
1017.9 hPa 0.8 mm 9.8°
2
52%
07:00
11°
1016.9 hPa 0.7 mm 10.1°
2
51%
13:00
16°
1016.6 hPa 0.4 mm 11.9°
3
57%
19:00
16°
1015.6 hPa 1.0 mm 12.5°
2
63%
 05:03     21:58    Daglengte: 16:55 Zaterdag 29 Jun
01:00
11°
1015.7 hPa 0.7 mm 9.9°
2
51%
07:00
11°
1014.9 hPa 0.3 mm 9.9°
2
53%
13:00
16°
1014.4 hPa 0.5 mm 11.9°
2
57%
19:00
16°
1013.2 hPa 1.4 mm 11.9°
2
63%
 05:04     21:58    Daglengte: 16:54 Zondag 30 Jun
01:00
11°
1012.7 hPa 0.6 mm 9.7°
2
56%
07:00
11°
1011.7 hPa 0.5 mm 9.8°
2
54%
13:00
15°
1012.1 hPa 0.8 mm 11.1°
2
67%
19:00
15°
1011.9 hPa 1.7 mm 11.7°
2
61%
 05:05     21:57    Daglengte: 16:52 Maandag 01 Jul
01:00
10°
1013.0 hPa 0.4 mm 8.8°
2
46%
07:00
10°
Voelt als: 8.6°
1012.9 hPa 0.3 mm 8.8°
3
29%
13:00
15°
1013.4 hPa 0.6 mm 10.9°
3
48%
  CAPE Lifted Index Hail Supercell Tornado SRH 3km CL BTM PRES CL TOP PRES Swiss DWD icon SMHI TS
 04:59     21:56    Daglengte: 16:57 Vandaag
19:00 118 J/kg 0.4 K 0 % 0 % 0 % 0 m²/s² 0 0 3.82 80
20:00 414 J/kg -1.3 K 0 % 0 % 0 % 0 m²/s² 0 0 2.57 80
21:00 214 J/kg 0.6 K 0 % 0 % 0 % 0 m²/s² 0 0 2.31 2
22:00 84 J/kg 1.8 K 0 % 0 % 0 % 0 m²/s² 0 0 2.28 2
23:00 169 J/kg 1.5 K 0 % 0 % 0 % 0 m²/s² 0 0 3.06 1
 04:59     21:57    Daglengte: 16:58 Morgen
00:00 164 J/kg 1.9 K 0 % 0 % 0 % 0 m²/s² 0 0 3.52 2
01:00 136 J/kg 2.0 K 0 % 0 % 0 % 0 m²/s² 0 0 5.12 3
02:00 77 J/kg 2.8 K 0 % 0 % 0 % 0 m²/s² 0 0 6.46 3
03:00 0 J/kg 4.7 K 0 % 0 % 0 % 0 m²/s² 0 0 9.05 3
04:00 0 J/kg 4.9 K 0 % 0 % 0 % 0 m²/s² 0 0 10 3
05:00 0 J/kg 4.8 K 0 % 0 % 0 % 0 m²/s² 0 0 8.94 1
06:00 2 J/kg 4.7 K 0 % 0 % 0 % 0 m²/s² 0 0 8.27 1
07:00 28 J/kg 4.2 K 0 % 0 % 0 % 0 m²/s² 0 0 7.5 2
08:00 77 J/kg 3.1 K 0 % 0 % 0 % 0 m²/s² 0 0 6.4 0
09:00 109 J/kg 2.2 K 0 % 0 % 0 % 0 m²/s² 0 0 5.41 2
10:00 122 J/kg 1.6 K 0 % 0 % 0 % 0 m²/s² 0 0 4.9 1
11:00 172 J/kg 1.1 K 0 % 0 % 0 % 0 m²/s² 0 0 4.46 2
12:00 171 J/kg 1.1 K 0 % 0 % 0 % 0 m²/s² 0 0 4.13 2
13:00 187 J/kg 1.0 K 0 % 0 % 0 % 0 m²/s² 0 0 4.12 2
14:00 201 J/kg 1.0 K 0 % 0 % 0 % 0 m²/s² 0 0 3.79 2
15:00 260 J/kg 0.5 K 0 % 0 % 0 % 0 m²/s² 0 0 3.14 3
16:00 290 J/kg 0.2 K 0 % 0 % 0 % 0 m²/s² 0 0 2.69 3
17:00 286 J/kg 0.1 K 0 % 0 % 0 % 0 m²/s² 0 0 2.74 3
18:00 281 J/kg -0.1 K 0 % 0 % 0 % 0 m²/s² 0 0 2.78 1
19:00 242 J/kg 0.3 K 0 % 0 % 0 % 0 m²/s² 0 0 3.87 1
20:00 166 J/kg 1.1 K 0 % 0 % 0 % 0 m²/s² 0 0 5.15 3
21:00 85 J/kg 2.0 K 0 % 0 % 0 % 0 m²/s² 0 0 6.5 3
22:00 5 J/kg 3.6 K 0 % 0 % 0 % 0 m²/s² 0 0 8.1 3
23:00 1 J/kg 4.0 K 0 % 0 % 0 % 0 m²/s² 0 0 8.77 2
 04:59     21:57    Daglengte: 16:58 Dinsdag 18 Jun
00:00 0 J/kg 4.2 K 0 % 0 % 0 % 0 m²/s² 0 0 9.09 1
01:00 0 J/kg 4.0 K 0 % 0 % 0 % 0 m²/s² 0 0 9.16 1
02:00 0 J/kg 4.7 K 0 % 0 % 0 % 0 m²/s² 0 0 9.74 2
03:00 0 J/kg 5.3 K 0 % 0 % 0 % 0 m²/s² 0 0 10.46 2
04:00 0 J/kg 5.6 K 0 % 0 % 0 % 0 m²/s² 0 0 10.76 2
05:00 0 J/kg 6.1 K 0 % 0 % 0 % 0 m²/s² 0 0 11.26 2
06:00 0 J/kg 6.8 K 0 % 0 % 0 % 0 m²/s² 0 0 11.96 3
07:00 0 J/kg 6.6 K 0 % 0 % 0 % 0 m²/s² 0 0 11.79 3
08:00 0 J/kg 6.2 K 0 % 0 % 0 % 0 m²/s² 0 0 11.39 3
09:00 0 J/kg 6.4 K 0 % 0 % 0 % 0 m²/s² 0 0 11.32 3
10:00 0 J/kg 6.3 K 0 % 0 % 0 % 0 m²/s² 0 0 10.98 3
11:00 2 J/kg 6.3 K 0 % 0 % 0 % 0 m²/s² 0 0 10.86 2
12:00 5 J/kg 6.1 K 0 % 0 % 0 % 0 m²/s² 0 0 10.24 1
13:00 13 J/kg 5.7 K 0 % 0 % 0 % 0 m²/s² 0 0 8.73 0
14:00 26 J/kg 5.4 K 0 % 0 % 0 % 0 m²/s² 0 0 7.41 1
15:00 52 J/kg 5.1 K 0 % 0 % 0 % 0 m²/s² 0 0 6.87 2
16:00 50 J/kg 5.0 K 0 % 0 % 0 % 0 m²/s² 0 0 6.47 2
17:00 46 J/kg 4.9 K 0 % 0 % 0 % 0 m²/s² 0 0 6.07 3
18:00 52 J/kg 4.6 K 0 % 0 % 0 % 0 m²/s² 0 0 5.65 3
19:00 71 J/kg 4.7 K 0 % 0 % 0 % 0 m²/s² 0 0 5.81 3
20:00 86 J/kg 4.3 K 0 % 0 % 0 % 0 m²/s² 0 0 5.41 3
21:00 82 J/kg 4.5 K 0 % 0 % 0 % 0 m²/s² 0 0 5.76 3
22:00 27 J/kg 5.5 K 0 % 0 % 0 % 0 m²/s² 0 0 6.7 3
23:00 34 J/kg 5.1 K 0 % 0 % 0 % 0 m²/s² 0 0 6.36 3
 04:59     21:58    Daglengte: 16:59 Woensdag 19 Jun
00:00 48 J/kg 5.0 K 0 % 0 % 0 % 0 m²/s² 0 0 6.41 3
01:00 27 J/kg 5.2 K 0 % 0 % 0 % 0 m²/s² 0 0 5.74 3
02:00 12 J/kg 4.8 K 0 % 0 % 0 % 0 m²/s² 0 0 5.1 3
03:00 0 J/kg 4.8 K 0 % 0 % 0 % 0 m²/s² 0 0 5.04 3
04:00 0 J/kg 5.1 K 0 % 0 % 0 % 0 m²/s² 0 0 5.34 3
05:00 0 J/kg 5.6 K 0 % 0 % 0 % 0 m²/s² 0 0 5.96 3
06:00 0 J/kg 5.5 K 0 % 0 % 0 % 0 m²/s² 0 0 6.19 3
07:00 0 J/kg 6.0 K 0 % 0 % 0 % 0 m²/s² 0 0 7.29 3
08:00 0 J/kg 6.1 K 0 % 0 % 0 % 0 m²/s² 0 0 8.56 3
09:00 38 J/kg 5.3 K 0 % 0 % 0 % 0 m²/s² 0 0 8.81 3
10:00 31 J/kg 5.0 K 0 % 0 % 0 % 0 m²/s² 0 0 9.11 3
11:00 36 J/kg 4.8 K 0 % 0 % 0 % 0 m²/s² 0 0 9.12 2
12:00 50 J/kg 4.9 K 0 % 0 % 0 % 0 m²/s² 0 0 9.94 1
13:00 78 J/kg 4.8 K 0 % 0 % 0 % 0 m²/s² 0 0 10.38 2
14:00 92 J/kg 4.8 K 0 % 0 % 0 % 0 m²/s² 0 0 10.89 3
15:00 118 J/kg 4.4 K 0 % 0 % 0 % 0 m²/s² 0 0 8.3 1
16:00 171 J/kg 3.6 K 0 % 0 % 0 % 0 m²/s² 0 0 5.4 2
17:00 170 J/kg 3.7 K 0 % 0 % 0 % 0 m²/s² 0 0 5.44 2
18:00 120 J/kg 4.3 K 0 % 0 % 0 % 0 m²/s² 0 0 6.4 2
Temp Baro Wind Neerslag
  EWN Forecast EWN WRFDA DWD ICON FMI HIRLAM MET Norway GFS
 04:59     21:56    Daglengte: 16:57 Vandaag
19:00 14.1° 1006.2 hPa 5.9 m/s 0.6 mm 14.4° 1005.2 hPa 6.7 m/s 2.3 mm 14.7° 1006.6 hPa 7.2 m/s 0.3 mm 16.1° 1006.3 hPa 4.6 m/s 0.0 mm 13.4° 1005.7 hPa 5.0 m/s 2.0 mm 13.1° 1006.9 hPa 5.9 m/s
22:00 12.4° 1007.6 hPa 4.9 m/s 0.8 mm 12.6° 1006.6 hPa 3.3 m/s 9.2 mm 12.6° 1007.8 hPa 5.2 m/s 1.1 mm 14.5° 1007.4 hPa 6.6 m/s 0.0 mm 11.6° 1007.7 hPa 4.1 m/s 0.5 mm 10.9° 1008.0 hPa 4.3 m/s
 04:59     21:57    Daglengte: 16:58 Morgen
01:00 11.3° 1008.9 hPa 4.7 m/s 0.0 mm 12.3° 1007.7 hPa 4.2 m/s 30.2 mm 11.3° 1009.2 hPa 4.6 m/s 0.0 mm 12.6° 1009.2 hPa 5.1 m/s 0.0 mm 10.6° 1008.9 hPa 4.3 m/s 0.0 mm 9.7° 1009.0 hPa 4.0 m/s
04:00 10.2° 1009.4 hPa 5.2 m/s 0.0 mm 9.4° 1008.0 hPa 5.2 m/s 35.5 mm 9.9° 1009.5 hPa 5.0 m/s 0.0 mm 12.9° 1010.1 hPa 5.6 m/s 0.0 mm 9.7° 1009.2 hPa 4.8 m/s 0.0 mm 8.6° 1009.1 hPa 5.1 m/s
07:00 11.1° 1009.6 hPa 5.5 m/s 0.0 mm 11.8° 1008.1 hPa 6.5 m/s 35.5 mm 10.9° 1009.6 hPa 6.2 m/s 0.0 mm 12.8° 1010.6 hPa 4.5 m/s 0.0 mm 10.9° 1009.4 hPa 4.8 m/s 0.0 mm 10.0° 1009.3 hPa 5.6 m/s
10:00 14.4° 1010.2 hPa 7.1 m/s 0.0 mm 14.6° 1008.7 hPa 7.8 m/s 35.5 mm 14.2° 1010.3 hPa 9.3 m/s 0.0 mm 14.5° 1011.4 hPa 5.2 m/s 0.0 mm 14.4° 1009.3 hPa 6.6 m/s 0.0 mm 13.8° 1009.6 hPa 7.5 m/s
13:00 16.4° 1010.3 hPa 7.3 m/s 0.0 mm 16.4° 1008.7 hPa 8.0 m/s 35.5 mm 16.9° 1010.1 hPa 10.1 m/s 0.0 mm 15.5° 1011.6 hPa 4.3 m/s 0.0 mm 16.6° 1010.2 hPa 6.9 m/s 0.3 mm 15.9° 1010.0 hPa 7.8 m/s
16:00 17.1° 1010.5 hPa 6.7 m/s 2.8 mm 16.9° 1009.2 hPa 7.6 m/s 35.5 mm 17.4° 1010.6 hPa 8.7 m/s 0.2 mm 16.9° 1011.0 hPa 4.1 m/s 0.0 mm 17.5° 1010.3 hPa 5.9 m/s 0.0 mm 15.9° 1010.4 hPa 6.9 m/s
19:00 16.1° 1010.9 hPa 4.9 m/s 2.8 mm 16.7° 1009.5 hPa 6.3 m/s 35.5 mm 16.4° 1011.0 hPa 7.1 m/s 0.0 mm 16.5° 1011.5 hPa 3.8 m/s 0.0 mm 15.8° 1010.9 hPa 3.6 m/s 0.0 mm 14.9° 1011.0 hPa 4.5 m/s
22:00 13.1° 1012.0 hPa 2.9 m/s 0.0 mm 11.1° 1010.7 hPa 3.1 m/s 35.5 mm 13.4° 1012.1 hPa 3.3 m/s 0.0 mm 15.2° 1012.3 hPa 2.0 m/s 0.0 mm 13.0° 1011.8 hPa 2.4 m/s 0.0 mm 10.3° 1012.5 hPa 2.9 m/s
 04:59     21:57    Daglengte: 16:58 Dinsdag 18 Jun
01:00 10.7° 1012.5 hPa 3.1 m/s 0.0 mm 9.3° 1011.2 hPa 3.8 m/s 35.5 mm 10.8° 1013.0 hPa 3.7 m/s 0.0 mm 14.6° 1012.4 hPa 2.3 m/s 0.0 mm 10.4° 1012.5 hPa 2.5 m/s 0.0 mm 8.2° 1012.8 hPa 3.2 m/s
04:00 9.6° 1012.4 hPa 3.0 m/s 0.0 mm 9.2° 1011.1 hPa 3.9 m/s 35.5 mm 9.5° 1012.9 hPa 3.3 m/s 0.0 mm 14.0° 1012.4 hPa 2.0 m/s 0.0 mm 9.0° 1012.3 hPa 2.6 m/s 0.0 mm 7.1° 1012.4 hPa 3.3 m/s
07:00 10.6° 1012.9 hPa 3.2 m/s 0.0 mm 10.6° 1011.3 hPa 4.3 m/s 35.5 mm 10.4° 1013.3 hPa 4.9 m/s 0.0 mm 14.0° 1012.7 hPa 2.0 m/s 0.0 mm 10.3° 1012.9 hPa 2.5 m/s 0.0 mm 9.3° 1012.4 hPa 3.5 m/s
10:00 14.0° 1012.7 hPa 4.0 m/s 0.0 mm 14.0° 1011.3 hPa 4.4 m/s 35.5 mm 13.4° 1013.4 hPa 5.1 m/s 0.0 mm 15.0° 1012.7 hPa 3.5 m/s 0.0 mm 14.1° 1012.7 hPa 3.4 m/s 0.0 mm 13.5° 1012.6 hPa 4.2 m/s
13:00 16.5° 1012.3 hPa 3.5 m/s 0.0 mm 16.6° 1010.7 hPa 2.8 m/s 35.5 mm 16.6° 1012.6 hPa 4.1 m/s 0.0 mm 15.8° 1012.4 hPa 3.6 m/s 0.0 mm 16.9° 1012.1 hPa 3.2 m/s 0.0 mm 16.4° 1012.3 hPa 3.8 m/s
16:00 18.1° 1010.8 hPa 2.9 m/s 0.0 mm 18.0° 1009.5 hPa 2.8 m/s 35.5 mm 18.1° 1011.4 hPa 3.7 m/s 0.0 mm 18.1° 1010.9 hPa 2.8 m/s 0.0 mm 17.2° 1011.4 hPa 3.3 m/s
19:00 17.5° 1010.1 hPa 2.5 m/s 0.0 mm 17.7° 1008.6 hPa 2.5 m/s 35.5 mm 17.6° 1010.3 hPa 2.6 m/s 0.0 mm 17.6° 1010.2 hPa 1.6 m/s 0.0 mm 16.5° 1010.5 hPa 2.3 m/s
22:00 13.6° 1010.5 hPa 2.4 m/s 0.0 mm 13.7° 1008.8 hPa 2.0 m/s 35.5 mm 14.0° 1010.5 hPa 3.2 m/s 0.0 mm 13.4° 1010.8 hPa 2.3 m/s 0.0 mm 12.1° 1011.0 hPa 1.5 m/s
 04:59     21:58    Daglengte: 16:59 Woensdag 19 Jun
01:00 11.4° 1010.2 hPa 1.6 m/s 0.0 mm 12.0° 1008.0 hPa 1.8 m/s 35.5 mm 11.5° 1009.6 hPa 1.5 m/s 0.2 mm 10.8° 1010.6 hPa 1.1 m/s 0.0 mm 10.5° 1010.1 hPa 1.2 m/s
04:00 10.1° 1009.2 hPa 2.3 m/s 0.0 mm 11.1° 1007.3 hPa 1.7 m/s 35.8 mm 10.1° 1008.6 hPa 1.6 m/s 0.0 mm 9.2° 1009.5 hPa 2.2 m/s 0.0 mm 9.9° 1009.1 hPa 2.0 m/s
07:00 10.4° 1009.1 hPa 2.2 m/s 0.0 mm 10.7° 1006.4 hPa 2.3 m/s 36.5 mm 11.0° 1008.2 hPa 1.6 m/s 0.0 mm 10.3° 1009.5 hPa 2.0 m/s 0.0 mm 9.6° 1008.3 hPa 2.1 m/s
10:00 13.8° 1008.6 hPa 3.5 m/s 0.0 mm 14.2° 1006.8 hPa 3.7 m/s 36.7 mm 14.8° 1007.7 hPa 3.4 m/s 0.0 mm 13.6° 1008.9 hPa 3.0 m/s 10.6° 1008.2 hPa 2.4 m/s
13:00 16.7° 1008.0 hPa 4.2 m/s 0.0 mm 16.4° 1006.0 hPa 3.8 m/s 36.8 mm 17.3° 1007.1 hPa 4.7 m/s 0.0 mm 16.9° 1008.3 hPa 4.0 m/s 16.3° 1007.6 hPa 3.1 m/s
16:00 16.5° 1007.1 hPa 4.8 m/s 4.2 mm 17.2° 1005.4 hPa 5.3 m/s 36.8 mm 17.1° 1006.6 hPa 5.9 m/s 0.2 mm 16.0° 1008.0 hPa 4.2 m/s 15.2° 1007.1 hPa 5.3 m/s
19:00 15.4° 1006.9 hPa 5.2 m/s 12.6 mm 15.9° 1005.2 hPa 6.4 m/s 37.3 mm 15.6° 1006.6 hPa 5.8 m/s 0.2 mm 15.1° 1007.6 hPa 4.4 m/s 14.0° 1006.9 hPa 3.9 m/s
22:00 12.0° 1008.1 hPa 3.9 m/s 12.5 mm 12.2° 1008.1 hPa 3.9 m/s 9.8° 1008.0 hPa 3.3 m/s 12.5 mm
 04:59     21:58    Daglengte: 16:59 Donderdag 20 Jun
01:00 10.4° 1008.3 hPa 3.7 m/s 12.6 mm 10.7° 1008.3 hPa 3.7 m/s 7.6° 1007.9 hPa 3.9 m/s 12.6 mm
04:00 10.1° 1008.4 hPa 4.3 m/s 12.6 mm 10.5° 1008.5 hPa 4.3 m/s 6.0° 1008.0 hPa 3.5 m/s 12.6 mm
07:00 10.1° 1008.5 hPa 5.0 m/s 12.6 mm 10.3° 1008.6 hPa 5.0 m/s 8.0° 1008.0 hPa 4.7 m/s 12.6 mm
10:00 12.4° 1009.3 hPa 4.8 m/s 12.7 mm 12.4° 1009.4 hPa 4.7 m/s 12.3° 1008.4 hPa 5.9 m/s 12.7 mm
13:00 14.6° 1010.1 hPa 4.5 m/s 13.7 mm 14.6° 1010.2 hPa 4.3 m/s 14.1° 1008.5 hPa 6.7 m/s 13.7 mm
16:00 14.0° 1010.9 hPa 4.3 m/s 16.4 mm 13.9° 1011.2 hPa 4.2 m/s 14.5° 1008.7 hPa 5.7 m/s 16.4 mm
19:00 13.3° 1011.9 hPa 4.1 m/s 18.0 mm 13.3° 1012.1 hPa 4.0 m/s 13.3° 1009.5 hPa 4.6 m/s 18.0 mm
22:00 10.7° 1013.7 hPa 3.2 m/s 18.5 mm 10.8° 1013.9 hPa 3.2 m/s 9.3° 1011.1 hPa 3.1 m/s 18.5 mm
 05:00     21:58    Daglengte: 16:58 Vrijdag 21 Jun
01:00 8.2° 1015.4 hPa 2.4 m/s 18.5 mm 8.3° 1015.7 hPa 2.4 m/s 7.0° 1012.2 hPa 2.8 m/s 18.5 mm
04:00 8.1° 1016.5 hPa 2.5 m/s 18.5 mm 8.3° 1016.8 hPa 2.5 m/s 5.6° 1013.2 hPa 2.7 m/s 18.5 mm
07:00 8.2° 1017.6 hPa 2.6 m/s 18.5 mm 8.3° 1017.9 hPa 2.6 m/s 7.0° 1014.3 hPa 2.9 m/s 18.5 mm
10:00 11.5° 1018.5 hPa 3.1 m/s 18.7 mm 11.5° 1018.8 hPa 3.1 m/s 11.6° 1015.7 hPa 3.1 m/s 18.7 mm
13:00 14.6° 1019.4 hPa 3.5 m/s 19.6 mm 14.7° 1019.7 hPa 3.6 m/s 13.0° 1016.6 hPa 2.4 m/s 19.6 mm
16:00 14.9° 1020.1 hPa 2.9 m/s 20.6 mm 14.9° 1020.4 hPa 2.9 m/s 14.4° 1017.1 hPa 2.4 m/s 20.6 mm
19:00 15.1° 1020.7 hPa 2.1 m/s 20.9 mm 15.1° 1021.0 hPa 2.2 m/s 14.9° 1017.3 hPa 1.4 m/s 20.9 mm
22:00 12.4° 1021.8 hPa 1.5 m/s 21.1 mm 12.6° 1022.0 hPa 1.6 m/s 10.0° 1018.5 hPa 1.2 m/s 21.1 mm
 05:00     21:58    Daglengte: 16:58 Zaterdag 22 Jun
01:00 10.1° 1022.7 hPa 1.0 m/s 21.2 mm 10.2° 1023.1 hPa 0.9 m/s 9.3° 1018.6 hPa 1.5 m/s 21.2 mm
04:00 10.2° 1022.8 hPa 1.3 m/s 21.3 mm 10.3° 1023.2 hPa 1.2 m/s 8.1° 1018.0 hPa 1.8 m/s 21.3 mm
07:00 10.5° 1022.9 hPa 1.6 m/s 21.3 mm 10.5° 1023.4 hPa 1.6 m/s 10.1° 1017.9 hPa 1.5 m/s 21.3 mm
10:00 13.3° 1023.0 hPa 1.9 m/s 21.4 mm 13.4° 1023.5 hPa 1.9 m/s 12.0° 1017.6 hPa 2.3 m/s 21.4 mm
13:00 16.3° 1023.0 hPa 2.4 m/s 21.6 mm 16.4° 1023.5 hPa 2.2 m/s 15.6° 1017.4 hPa 4.7 m/s 21.6 mm
16:00 16.3° 1022.7 hPa 2.7 m/s 22.4 mm 16.3° 1023.2 hPa 2.5 m/s 16.2° 1017.0 hPa 4.8 m/s 22.4 mm
19:00 16.0° 1022.5 hPa 2.9 m/s 23.2 mm 16.2° 1023.0 hPa 2.9 m/s 14.0° 1016.8 hPa 2.7 m/s 23.2 mm
22:00 12.7° 1023.0 hPa 2.5 m/s 23.3 mm 12.8° 1023.5 hPa 2.5 m/s 11.6° 1017.2 hPa 1.9 m/s 23.3 mm
 05:00     21:58    Daglengte: 16:58 Zondag 23 Jun
01:00 9.5° 1023.4 hPa 2.2 m/s 23.3 mm 9.4° 1024.0 hPa 2.2 m/s 10.7° 1016.6 hPa 1.8 m/s 23.3 mm
04:00 10.6° 1023.1 hPa 2.1 m/s 23.3 mm 10.6° 1023.8 hPa 2.1 m/s 11.1° 1015.6 hPa 2.3 m/s 23.3 mm
07:00 11.7° 1022.8 hPa 2.1 m/s 23.3 mm 11.7° 1023.5 hPa 2.0 m/s 11.6° 1014.9 hPa 2.8 m/s 23.3 mm
10:00 14.5° 1022.7 hPa 3.0 m/s 23.3 mm 14.4° 1023.5 hPa 3.0 m/s 15.6° 1013.8 hPa 3.4 m/s 23.3 mm
13:00 17.2° 1022.6 hPa 4.0 m/s 23.6 mm 17.2° 1023.5 hPa 3.9 m/s 17.3° 1012.2 hPa 4.7 m/s 23.6 mm
16:00 16.6° 1022.5 hPa 3.7 m/s 23.8 mm 16.6° 1023.5 hPa 3.5 m/s 17.3° 1010.4 hPa 5.7 m/s 23.8 mm
19:00 15.8° 1022.4 hPa 3.3 m/s 24.0 mm 15.9° 1023.6 hPa 3.2 m/s 14.8° 1008.8 hPa 4.5 m/s 24.0 mm
 05:01     21:58    Daglengte: 16:57 Maandag 24 Jun
01:00 10.7° 1023.5 hPa 2.5 m/s 26.6 mm 10.6° 1025.2 hPa 2.3 m/s 12.3° 1004.4 hPa 5.3 m/s 26.6 mm
07:00 12.5° 1023.7 hPa 2.8 m/s 27.9 mm 12.4° 1025.9 hPa 2.7 m/s 13.6° 999.7 hPa 4.3 m/s 27.9 mm
13:00 17.3° 1024.6 hPa 4.8 m/s 29.6 mm 17.2° 1027.0 hPa 4.8 m/s 18.0° 998.1 hPa 4.4 m/s 29.6 mm
19:00 16.2° 1025.3 hPa 3.8 m/s 31.9 mm 16.3° 1027.9 hPa 3.9 m/s 15.4° 996.8 hPa 2.5 m/s 31.9 mm
 05:01     21:58    Daglengte: 16:57 Dinsdag 25 Jun
01:00 10.8° 1027.3 hPa 2.1 m/s 33.1 mm 10.7° 1029.9 hPa 2.2 m/s 12.1° 998.3 hPa 0.7 m/s 33.1 mm
07:00 11.6° 1028.1 hPa 1.6 m/s 33.3 mm 11.5° 1030.6 hPa 1.5 m/s 13.0° 1000.3 hPa 2.3 m/s 33.3 mm
13:00 19.7° 1028.6 hPa 3.0 m/s 35.4 mm 20.3° 1030.7 hPa 2.7 m/s 13.4° 1005.3 hPa 6.0 m/s 35.4 mm
19:00 19.3° 1028.0 hPa 2.3 m/s 36.0 mm 19.8° 1029.6 hPa 1.8 m/s 13.3° 1010.4 hPa 7.3 m/s 36.0 mm
 05:01     21:58    Daglengte: 16:57 Woensdag 26 Jun
01:00 11.8° 1029.3 hPa 1.6 m/s 36.1 mm 11.8° 1030.5 hPa 1.1 m/s 11.5° 1016.2 hPa 6.5 m/s 36.1 mm
07:00 9.5° 1020.0 hPa 5.0 m/s 36.1 mm 9.5° 1020.0 hPa 5.0 m/s 36.1 mm
13:00 15.3° 1025.3 hPa 3.0 m/s 0.1 mm
19:00 15.6° 1024.1 hPa 2.1 m/s 0.3 mm
 05:02     21:58    Daglengte: 16:56 Donderdag 27 Jun
01:00 10.4° 1023.7 hPa 1.4 m/s 0.3 mm
07:00 10.3° 1021.7 hPa 1.8 m/s 0.5 mm
13:00 15.0° 1020.3 hPa 1.9 m/s 1.2 mm
19:00 15.5° 1018.2 hPa 2.1 m/s 1.2 mm
 05:03     21:58    Daglengte: 16:55 Vrijdag 28 Jun
01:00 11.0° 1017.9 hPa 2.4 m/s 0.8 mm
07:00 11.4° 1016.9 hPa 2.4 m/s 0.7 mm
13:00 16.3° 1016.6 hPa 2.6 m/s 0.4 mm
19:00 16.3° 1015.6 hPa 2.5 m/s 1.0 mm
 05:03     21:58    Daglengte: 16:55 Zaterdag 29 Jun
01:00 11.3° 1015.7 hPa 2.2 m/s 0.7 mm
07:00 11.2° 1014.9 hPa 2.1 m/s 0.3 mm
13:00 16.3° 1014.4 hPa 2.2 m/s 0.5 mm
19:00 16.1° 1013.2 hPa 1.7 m/s 1.4 mm
 05:04     21:58    Daglengte: 16:54 Zondag 30 Jun
01:00 11.0° 1012.7 hPa 1.9 m/s 0.6 mm
07:00 11.1° 1011.7 hPa 2.0 m/s 0.5 mm
13:00 15.2° 1012.1 hPa 2.5 m/s 0.8 mm
19:00 15.2° 1011.9 hPa 2.2 m/s 1.7 mm
 05:05     21:57    Daglengte: 16:52 Maandag 01 Jul
01:00 10.1° 1013.0 hPa 2.3 m/s 0.4 mm
07:00 9.9° 1012.9 hPa 2.5 m/s 0.3 mm
13:00 15.4° 1013.4 hPa 2.9 m/s 0.6 mm
FMI Hirlam - 7.5 km EWN WRFDA - 12 km DWD ICON - 7 km GFS - 25 km Basiskaart






























































Updatetijd (Europe/Amsterdam) Resolutie Lengte Stap
FMI Hirlam 19:00, 01:00, 07:00, 13:00 7.5 km 49h 1h
EWN WRFDA 16:15, 22:15, 04:15, 10:15 12 km 73h 1h
DWD ICON 18:00, 00:00, 06:00, 12:00 7 km 75h 1h
GFS 14:30, 20:30, 02:30, 08:30 25 km 237h 3h
30+ mm
25-30 mm
20-25 mm
15-20 mm
10-15 mm
6-10 mm
4-6 mm
2-4 mm
1-2 mm
0.5-1 mm
0.2-0.5 mm
0.1-0.2 mm
30+ mm
25-30 mm
20-25 mm
15-20 mm
10-15 mm
6-10 mm
4-6 mm
2-4 mm
1-2 mm
0.5-1 mm
0.2-0.5 mm
0.1-0.2 mm
Sneeuwval
Natte sneeuw
Hagel
Vorst
30+ mm
25-30 mm
20-25 mm
15-20 mm
10-15 mm
6-10 mm
4-6 mm
2-4 mm
1-2 mm
0.5-1 mm
0.2-0.5 mm
0.1-0.2 mm
Sneeuwval
Natte sneeuw
Hagel
Vorst
Onweer
50 mm
40 mm
30 mm
26 mm
22 mm
18 mm
14 mm
10 mm
9 mm
8 mm
7 mm
6 mm
5 mm
4.5 mm
4 mm
3.5 mm
3 mm
2.5 mm
2 mm
1.5 mm
1 mm
0.8 mm
0.6 mm
0.4 mm
0.2 mm
0.05 mm
35°
30°
25°
20°
15°
10°
-5°
-10°
-15°
-20°
-25°
-30°
-35°
33> m/s
29 m/s
25 m/s
21 m/s
17 m/s
14 m/s
11 m/s
8 m/s
5 m/s
3 m/s
0 m/s
2600 J/kg
2400 J/kg
2200 J/kg
2000 J/kg
1800 J/kg
1600 J/kg
1400 J/kg
1200 J/kg
1000 J/kg
800 J/kg
600 J/kg
400 J/kg
200 J/kg
70 dBZ
65 dBZ
60 dBZ
55 dBZ
50 dBZ
45 dBZ
40 dBZ
35 dBZ
30 dBZ
25 dBZ
20 dBZ
15 dBZ
10 dBZ
5 dBZ
-1 K
-2 K
-3 K
-4 K
-5 K
-6 K
-7 K
-8 K
-9 K
950 m²/s²
900 m²/s²
850 m²/s²
800 m²/s²
750 m²/s²
700 m²/s²
650 m²/s²
600 m²/s²
550 m²/s²
500 m²/s²
450 m²/s²
400 m²/s²
350 m²/s²
300 m²/s²
250 m²/s²
200 m²/s²
150 m²/s²
100 m²/s²
46 m/s
44 m/s
42 m/s
40 m/s
38 m/s
36 m/s
34 m/s
32 m/s
30 m/s
28 m/s
26 m/s
24 m/s
22 m/s
20 m/s
16 m/s
12 m/s
8 m/s
4 m/s
30 m/s
28 m/s
26 m/s
24 m/s
22 m/s
20 m/s
18 m/s
16 m/s
14 m/s
12 m/s
10 m/s
8 m/s
6 m/s
4 m/s
2 m/s
3.0
2.8
2.6
2.4
2.2
2.0
1.8
1.6
1.4
1.2
1.0
0.8
0.6
0.4
0.2
15
14
13
12
11
10
9
8
7
6
5
4
3
2
1
90%
80%
70%
60%
50%
40%
30%
20%
10%
42
40
38
36
34
32
30
28
26
24
22
20
18
16
14
12
90+ cm
80-90 cm
70-80 cm
60-70 cm
50-60 cm
40-50 cm
30-40 cm
20-30 cm
10-20 cm
1-10 cm
Sneeuwval
Natte sneeuw
Regen
>120 mm
115 mm
110 mm
105 mm
100 mm
95 mm
90 mm
85 mm
80 mm
75 mm
70 mm
65 mm
60 mm
55 mm
50 mm
45 mm
45 mm
40 mm
35 mm
30 mm
25 mm
20 mm
15 mm
10 mm
5 mm